Date String (YYYY-MM-DD hh:mm:ss) UTC,Instrument flags,absolute air pressure of the measurement (hPa),sample flow rate (lpm),inlet stack bypass flow (lpm),air temperature of the measurement (°C),ambient temperature measured by the external sensor (°C),aerosol sample conditioner tube jacket temperature (°C),OPC LED temperature (°C),internal box temperature (°C),relative humidity of the measurement (%),span deviation,mass concentration of particles derived from Lorenz-Mie calculation of OPC scattering (μg/m³),mass concentration of particles derived from Lorenz-Mie calculation of OPC scattering (μg/m³),mass concentration of particles derived from Lorenz-Mie calculation of OPC scattering (μg/m³)
DateTimeUTC,F1_M11,P_M11,Q1_M11,Q2_M11,T1_M11,T2_M11,T3_M11,T4_M11,T5_M11,U1_M11,ZSPAN_M11,X2_M11,X0_M11,X1_M11
2023-08-10 15:00:00,SystemResetWarning,0830.0,4.99,000.00,029.8,028.6,000.0,038.4,031.4,23.7,-000.7,0006.31,0014.19,0005.60
2023-08-10 15:01:00,SystemResetWarning,0830.0,5.00,000.00,029.8,028.6,000.0,038.4,031.5,23.3,-000.7,0006.29,0014.22,0005.60
2023-08-10 15:02:00,SystemResetWarning,0830.0,5.00,000.00,029.9,028.6,000.0,038.4,031.5,23.1,-000.9,0006.33,0013.85,0005.60
2023-08-10 15:03:00,SystemResetWarning,0830.0,5.00,000.00,029.9,028.7,000.0,038.4,031.5,23.1,-000.7,0006.33,0013.44,0005.61
2023-08-10 15:04:00,SystemResetWarning,0830.0,5.00,000.00,029.9,028.6,000.0,038.5,031.5,23.0,-000.4,0006.28,0013.24,0005.61
2023-08-10 15:05:00,SystemResetWarning,0829.9,4.99,000.00,029.9,027.1,000.0,038.3,031.4,23.6,-000.0,0006.29,0012.90,0005.62
2023-08-10 15:06:00,SystemResetWarning,0829.9,5.00,000.00,029.8,025.9,000.0,038.2,031.1,23.2,0000.0,0006.32,0012.09,0005.61
2023-08-10 15:07:00,SystemResetWarning,0829.9,5.00,000.00,029.8,025.9,000.0,038.2,030.9,22.9,0000.0,0006.30,0012.31,0005.60
2023-08-10 15:08:00,SystemResetWarning,0829.8,5.01,000.00,029.6,026.1,000.0,038.2,030.8,24.0,0000.0,0006.26,0012.62,0005.59
2023-08-10 15:09:00,SystemResetWarning,0829.9,5.00,000.00,029.6,026.5,000.0,038.2,030.9,24.2,0000.0,0006.25,0012.47,0005.59
2023-08-10 15:10:00,SystemResetWarning,0830.0,5.00,000.00,029.6,026.8,000.0,038.2,031.0,25.6,0000.0,0006.26,0012.24,0005.58
2023-08-10 15:11:00,SystemResetWarning,0830.0,5.00,000.00,029.6,027.1,000.0,038.2,031.1,26.4,0000.2,0006.27,0012.76,0005.58
2023-08-10 15:12:00,SystemResetWarning,0830.0,5.00,000.00,029.6,027.4,000.0,038.2,031.1,26.7,0000.6,0006.25,0012.75,0005.57
2023-08-10 15:13:00,SystemResetWarning,0829.9,5.01,000.00,029.6,027.6,000.0,038.3,031.2,22.0,0001.4,0006.23,0012.54,0005.56
2023-08-10 15:14:00,SystemResetWarning,0830.0,5.00,000.00,029.6,027.8,000.0,038.3,031.2,23.3,0001.5,0006.20,0012.45,0005.56
2023-08-10 15:15:00,SystemResetWarning,0830.0,4.99,000.00,029.6,028.0,000.0,038.3,031.3,21.6,0001.7,0006.22,0013.00,0005.55
2023-08-10 15:16:00,SystemResetWarning,0830.0,5.00,000.00,029.6,028.1,000.0,038.3,031.3,22.5,0001.5,0006.22,0013.54,0005.55
2023-08-10 15:17:00,SystemResetWarning,0830.0,5.00,000.00,029.7,028.3,000.0,038.3,031.3,23.9,0001.8,0006.20,0013.78,0005.56
2023-08-10 15:18:00,SystemResetWarning,0830.0,5.01,000.00,029.7,028.4,000.0,038.3,031.3,25.4,0002.0,0006.23,0013.77,0005.56
2023-08-10 15:19:00,SystemResetWarning,0830.0,5.01,000.00,029.7,028.4,000.0,038.3,031.4,26.7,0001.6,0006.26,0013.80,0005.56
2023-08-10 15:20:00,SystemResetWarning,0830.0,5.01,000.00,029.8,028.5,000.0,038.3,031.4,27.0,0001.4,0006.26,0013.71,0005.55
2023-08-10 15:21:00,SystemResetWarning,0830.0,5.00,000.00,029.8,028.6,000.0,038.3,031.5,24.7,0001.1,0006.27,0013.43,0005.55
2023-08-10 15:22:00,SystemResetWarning,0830.0,5.00,000.00,029.8,028.7,000.0,038.4,031.5,23.8,0000.9,0006.26,0012.79,0005.55
2023-08-10 15:23:00,SystemResetWarning,0830.0,5.00,000.00,029.8,028.7,000.0,038.4,031.5,24.4,0000.4,0006.28,0012.88,0005.54
2023-08-10 15:24:00,SystemResetWarning,0830.0,4.99,000.00,029.9,027.9,000.0,038.3,031.5,25.1,-000.2,0006.29,0013.08,0005.54
2023-08-10 15:25:00,SystemResetWarning,0829.9,5.00,000.00,029.8,026.0,000.0,038.2,031.2,25.4,0000.2,0006.31,0013.17,0005.53
2023-08-10 15:26:00,SystemResetWarning,0829.9,5.01,000.00,029.8,025.5,000.0,038.1,031.1,25.9,0000.0,0006.28,0012.60,0005.53
2023-08-10 15:27:00,SystemResetWarning,0829.9,4.99,000.00,029.7,025.7,000.0,038.1,030.9,26.0,0000.5,0006.28,0011.82,0005.53
2023-08-10 15:28:00,SystemResetWarning,0829.9,5.00,000.00,029.6,026.0,000.0,038.1,030.9,26.2,0000.1,0006.29,0011.96,0005.53
2023-08-10 15:29:00,SystemResetWarning,0829.9,5.01,000.00,029.5,026.4,000.0,038.1,030.9,24.9,0000.1,0006.26,0011.70,0005.52
2023-08-10 15:30:00,SystemResetWarning,0829.9,5.00,000.00,029.5,026.8,000.0,038.2,031.0,26.6,0000.0,0006.24,0011.06,0005.51
2023-08-10 15:31:00,SystemResetWarning,0829.9,4.99,000.00,029.5,027.2,000.0,038.2,031.1,26.4,-000.3,0006.26,0011.09,0005.52
2023-08-10 15:32:00,SystemResetWarning,0829.9,5.00,000.00,029.5,027.4,000.0,038.2,031.1,28.9,0000.0,0006.23,0010.99,0005.52
2023-08-10 15:33:00,SystemResetWarning,0829.9,5.00,000.00,029.6,027.7,000.0,038.2,031.2,30.1,0000.3,0006.20,0011.00,0005.52
2023-08-10 15:34:00,SystemResetWarning,0830.0,5.00,000.00,029.6,027.9,000.0,038.2,031.2,29.8,0000.5,0006.18,0011.33,0005.53
2023-08-10 15:35:00,SystemResetWarning,0829.9,4.99,000.00,029.6,028.0,000.0,038.2,031.3,29.7,0000.8,0006.16,0011.10,0005.53
2023-08-10 15:36:00,SystemResetWarning,0830.0,4.99,000.00,029.6,028.2,000.0,038.2,031.3,29.0,0000.6,0006.17,0010.98,0005.53
2023-08-10 15:37:00,SystemResetWarning,0829.9,5.00,000.00,029.6,028.3,000.0,038.2,031.3,28.3,0001.0,0006.16,0010.86,0005.53
2023-08-10 15:38:00,SystemResetWarning,0830.0,5.00,000.00,029.7,028.4,000.0,038.2,031.4,28.1,0001.6,0006.17,0011.32,0005.53
2023-08-10 15:39:00,SystemResetWarning,0830.0,5.00,000.00,029.7,028.5,000.0,038.2,031.4,28.0,0002.0,0006.15,0011.13,0005.52
2023-08-10 15:40:00,SystemResetWarning,0830.0,5.00,000.00,029.7,028.6,000.0,038.3,031.5,27.5,0001.9,0006.10,0010.85,0005.52
2023-08-10 15:41:00,SystemResetWarning,0829.9,5.01,000.00,029.8,028.6,000.0,038.3,031.5,26.5,0002.2,0006.09,0010.97,0005.52
2023-08-10 15:42:00,SystemResetWarning,0829.9,5.00,000.00,029.8,028.0,000.0,038.2,031.4,26.0,0001.4,0006.08,0011.23,0005.52
2023-08-10 15:43:00,SystemResetWarning,0829.8,4.99,000.00,029.8,026.2,000.0,038.1,031.2,26.7,0000.0,0006.10,0011.28,0005.53
2023-08-10 15:44:00,SystemResetWarning,0829.8,5.02,000.00,029.7,025.5,000.0,038.0,031.0,26.9,0000.0,0006.12,0012.23,0005.53
2023-08-10 15:45:00,SystemResetWarning,0829.8,4.99,000.00,029.6,025.7,000.0,038.0,030.8,25.9,0000.0,0006.12,0011.75,0005.52
2023-08-10 15:46:00,SystemResetWarning,0829.8,5.00,000.00,029.5,026.1,000.0,038.1,030.8,26.8,0000.0,0006.17,0012.03,0005.55
2023-08-10 15:47:00,SystemResetWarning,0829.8,4.99,000.00,029.5,026.5,000.0,038.1,030.9,26.3,0000.0,0006.15,0011.95,0005.56
2023-08-10 15:48:00,SystemResetWarning,0829.8,4.99,000.00,029.5,026.8,000.0,038.1,031.0,26.9,0000.0,0006.15,0012.66,0005.56
2023-08-10 15:49:00,SystemResetWarning,0829.8,5.00,000.00,029.5,027.2,000.0,038.1,031.1,26.1,0000.0,0006.13,0012.66,0005.57
2023-08-10 15:50:00,SystemResetWarning,0829.9,5.00,000.00,029.5,027.5,000.0,038.1,031.1,25.6,0000.0,0006.12,0012.56,0005.57
2023-08-10 15:51:00,SystemResetWarning,0829.8,5.00,000.00,029.5,027.7,000.0,038.1,031.2,25.2,0000.0,0006.20,0012.90,0005.58
2023-08-10 15:52:00,SystemResetWarning,0829.8,5.01,000.00,029.6,027.9,000.0,038.1,031.2,25.3,0000.0,0006.20,0012.84,0005.58
2023-08-10 15:53:00,SystemResetWarning,0829.8,5.00,000.00,029.6,028.1,000.0,038.1,031.3,25.4,0000.0,0006.18,0012.79,0005.58
2023-08-10 15:54:00,SystemResetWarning,0829.8,5.00,000.00,029.6,028.2,000.0,038.2,031.3,26.1,-000.1,0006.19,0012.97,0005.59
2023-08-10 15:55:00,SystemResetWarning,0829.8,5.00,000.00,029.6,028.3,000.0,038.2,031.3,26.1,-000.5,0006.18,0011.99,0005.59
2023-08-10 15:56:00,SystemResetWarning,0829.8,5.00,000.00,029.7,028.4,000.0,038.2,031.4,24.8,-000.4,0006.20,0012.64,0005.59
2023-08-10 15:57:00,SystemResetWarning,0829.8,5.00,000.00,029.7,028.5,000.0,038.2,031.4,24.9,-000.2,0006.20,0012.52,0005.58
2023-08-10 15:58:00,SystemResetWarning,0829.8,4.99,000.00,029.8,028.0,000.0,038.2,031.4,25.8,0000.0,0006.25,0012.60,0005.58
2023-08-10 15:59:00,SystemResetWarning,0829.8,5.00,000.00,029.7,026.3,000.0,038.0,031.1,26.7,0000.0,0006.30,0012.05,0005.59
